Location: Crescent
(42.8242°N, 73.7329°W)
Time: 02:21:59
(UTC+00:00)

Tiros 1 - Pass Details

Date: 19 February 2026
Orbit: 618 x 649 km, 48.4° (Epoch: 13 March)

Event Time Altitude Azimuth Distance (km) Brightness Sun altitude
Rises 11:51:54 0° 206° (SSW) 2,913 10.4 0.2°
Reaches altitude 10° 11:54:32 10° 193° (SSW) 2,003 9.7 0.6°
Maximum altitude 11:58:18 25° 138° (SE) 1,269 9.6 1.3°
Drops below altitude 10° 12:02:02 10° 83° (E) 1,996 11.1 2.0°
Sets 12:04:39 0° 70° (ENE) 2,900 11.5 2.4°
